Overview Statistics Trail Chart Weather Telemetry Raw packets
 

This is the latest recevied weather packets stored in our database for station/object M0JUI-1. If no packets are shown the sender has not sent any weather packets the latest 10 day(s).

<< 32 33 34 35 36 37 38 >>
Time Temp. Humidity Pressure Rain* Wind** Luminosity Snow
1788416865 16.67° C 4% 1013.9 hPa 0 mm - 16 W/m² -
1788416566 16.67° C 4% 1013.9 hPa 0 mm - 17 W/m² -
1788416285 16.67° C 3% 1014.1 hPa 0 mm - 36 W/m² -
1788415953 16.11° C 3% 1014.1 hPa 0 mm - 30 W/m² -
1788415653 16.11° C 3% 1013.9 hPa 0 mm - 26 W/m² -
1788415353 16.11° C 3% 1013.9 hPa 0 mm - 18 W/m² -
1788415041 16.11° C 3% 1013.8 hPa 0 mm - 14 W/m² -
1788414742 16.11° C 4% 1014 hPa 0 mm - 7 W/m² -
1788414441 16.11° C 4% 1014.1 hPa 0 mm - 6 W/m² -
1788414129 16.11° C 4% 1014 hPa 0 mm - 7 W/m² -
1788413830 16.11° C 5% 1014 hPa 0 mm - 10 W/m² -
1788413517 16.11° C 6% 1014 hPa 0 mm - 5 W/m² -
1788413217 16.11° C 7% 1014.1 hPa 0 mm - 0 W/m² -
1788412917 16.11° C 7% 1014.2 hPa 0 mm - 0 W/m² -
1788412617 16.11° C 8% 1014 hPa 0 mm - 0 W/m² -
1788412317 16.11° C 9% 1014.2 hPa 0 mm - 0 W/m² -
1788412017 16.11° C 10% 1014.2 hPa 0 mm - 0 W/m² -
1788411717 16.11° C 11% 1014.1 hPa 0 mm - 0 W/m² -
1788411417 16.11° C 12% 1014 hPa 0 mm - 0 W/m² -
1788411117 15.56° C 12% 1014.1 hPa 0 mm - 0 W/m² -
1788410817 15.56° C 12% 1013.7 hPa 0 mm - 0 W/m² -
1788410517 16.11° C 13% 1013.9 hPa 0 mm - 0 W/m² -
1788410217 16.11° C 13% 1013.8 hPa 0 mm - 0 W/m² -
1788409917 16.11° C 13% 1013.8 hPa 0 mm - 0 W/m² -
1788409617 16.11° C 13% 1013.7 hPa 0 mm - 0 W/m² -

* Rain latest hour (hover to see other rain measurements)
** Current wind speed in m/s (hover to see current wind gust speed)